GFSNE_700_temp_156.txt.gz
Temp
1 2 2 3 3 3 2 2 2 3 3 3 1 2 2 2 2 1 2 2 2 2 2 2 1 2 1 1 2 2 2 1 1 1 0 0 0 -0
2 3 2 2 3 3 3 3 2 2 2 2 2 2 2 2 2 2 1 2 2 2 2 2 1 1 1 1 2 2 2 1 1 1 1 -0 -1 -0
2 2 2 3 3 2 2 3 2 1 1 2 2 2 1 1 0 1 1 1 2 2 2 2 2 1 1 1 1 1 1 0 0 0 -0 -0 -2 -1
1 2 2 2 2 2 2 1 1 1 1 1 1 1 1 1 0 0 1 1 2 2 2 2 2 2 1 1 1 0 0 -1 -1 -0 -0 -0 -2 -2
1 2 2 2 2 4 0 1 1 1 1 0 1 0 0 0 1 0 1 1 1 1 2 2 2 2 2 1 1 0 -1 -1 -0 0 -0 -0 -1 -2
-0 1 2 2 1 1 1 1 1 1 0 1 0 0 0 1 1 1 1 0 0 0 1 2 2 1 1 0 0 1 0 -0 0 0 0 0 -0 -0
0 0 0 0 0 1 1 1 2 1 1 1 0 0 0 -0 0 0 1 1 1 1 1 1 1 1 1 0 0 1 1 0 0 -0 -0 0 -1 -1
-0 -1 0 -1 1 1 2 1 1 1 0 1 0 0 1 1 -0 -0 0 0 1 1 1 1 1 1 1 1 0 1 1 1 1 0 0 -0 -0 0
-2 -2 -1 -0 0 1 1 1 1 2 2 2 2 2 1 0 0 0 0 0 0 1 1 1 1 1 0 1 0 0 1 1 0 0 0 0 0 0
-2 -2 -3 -1 -0 1 1 1 1 1 2 2 2 1 1 1 1 0 0 1 0 0 0 0 1 1 1 1 1 1 1 1 -0 -0 -0 -0 -0 -0
-5 -3 -2 -2 -1 0 0 -0 0 1 1 2 2 1 1 1 0 -0 -0 1 0 2 0 -0 -0 0 1 0 0 1 1 0 0 0 0 0 0 -1
-4 -3 -2 -2 -1 -0 -0 0 0 0 0 1 1 1 1 1 0 -0 0 -0 0 0 0 -0 0 -0 0 -0 -0 1 0 -0 0 0 -0 -0 -0 0
-4 -3 -3 -2 -1 -1 -0 -0 1 0 1 0 0 1 1 1 0 -0 -0 -1 -0 -0 -0 0 -0 0 -0 0 1 0 1 1 -0 -0 0 -0 -1 -1
-4 -3 -3 -2 -1 -1 -1 -0 1 1 2 1 1 0 0 0 1 1 0 0 0 0 -0 -0 -0 -0 0 -0 -0 -0 -0 0 0 0 -0 -0 -1 -1
-3 -2 -2 -2 -1 -1 -1 -1 -0 1 1 2 1 1 1 0 0 1 1 1 0 -0 -0 -1 -1 -1 -0 -0 -0 -0 0 -0 -0 -1 -1 -0 -1 -1
-4 -3 -2 -2 -1 -1 -1 -0 -0 0 1 1 1 1 1 1 1 1 0 1 1 0 -0 -0 -1 -1 -1 -1 -0 -1 -1 -1 -1 -1 -0 -1 -1 -1
-5 -5 -4 -4 -3 -2 -1 -1 -1 -0 -0 0 1 1 1 1 1 1 1 1 1 1 0 -0 -1 -1 -1 -1 -1 -1 -1 -1 -1 -1 -1 -1 -1 -1
-6 -5 -5 -4 -4 -3 -3 -2 -2 -1 -1 -0 0 1 1 1 1 1 1 1 1 1 0 -0 -1 -1 -1 -1 -1 -1 -1 -1 -1 -1 -2 -2 -2 -1
-7 -6 -6 -5 -5 -4 -4 -4 -3 -3 -2 -1 -1 -0 0 1 1 0 -0 0 1 1 0 -1 -1 -1 -1 -2 -2 -1 -2 -1 -2 -2 -2 -2 -2 -2
-9 -8 -8 -7 -6 -5 -5 -4 -4 -3 -3 -2 -2 -1 -1 -1 -1 -0 -0 -1 -0 -0 -0 -0 -1 -2 -2 -2 -2 -2 -2 -2 -2 -2 -2 -3 -3 -3
-10 -9 -9 -8 -7 -7 -6 -5 -5 -4 -4 -3 -3 -3 -3 -2 -2 -2 -2 -1 -1 -1 -1 -1 -2 -3 -3 -3 -3 -3 -2 -3 -2 -3 -3 -4 -4 -4
-11 -11 -11 -10 -9 -9 -8 -7 -7 -6 -5 -4 -4 -4 -4 -3 -4 -4 -3 -3 -3 -3 -2 -3 -4 -5 -5 -4 -3 -3 -3 -3 -3 -4 -4 -5 -5 -5
-13 -12 -12 -12 -11 -10 -10 -9 -9 -8 -7 -7 -6 -6 -6 -7 -6 -5 -5 -6 -5 -4 -4 -6 -5 -5 -5 -3 -3 -3 -3 -5 -5 -5 -5 -6 -6 -7

GFSNE_700_temp_162.txt.gz
Temp
-2 -2 -1 0 1 1 0 1 1 3 4 3 1 1 1 1 2 1 1 2 2 2 2 2 2 2 2 2 1 1 1 1 1 1 2 2 2 1
-4 -3 -2 -1 0 0 0 1 2 3 3 2 1 0 0 1 1 1 1 1 1 1 2 1 1 2 2 2 2 1 1 1 0 1 1 2 2 2
-5 -4 -4 -3 -1 0 -0 1 1 2 2 2 1 0 1 1 1 2 2 2 1 1 2 2 2 2 2 2 2 2 1 1 1 1 1 2 2 2
-5 -4 -5 -3 -1 -0 -1 0 1 1 2 2 2 2 2 1 1 1 2 2 1 2 2 2 2 1 1 1 2 1 1 1 1 1 0 1 2 2
-6 -4 -3 -2 -1 -1 -1 0 1 1 2 1 2 1 1 1 1 1 2 2 1 1 2 2 1 1 1 1 2 1 2 1 1 1 1 1 2 1
-6 -5 -4 -3 -1 -1 -1 -0 0 1 1 2 2 1 1 1 1 1 1 1 1 0 1 1 1 1 1 1 2 1 1 2 2 1 1 1 1 1
-6 -5 -6 -3 -4 -1 -2 -0 0 0 1 1 0 1 1 1 1 1 1 0 0 -0 0 1 1 0 1 1 1 1 1 2 2 1 1 1 1 1
-7 -6 -5 -4 -3 -2 -2 -1 -1 -1 -1 1 0 0 0 1 0 1 0 -0 -0 0 0 0 1 1 1 1 1 1 1 1 1 1 1 1 1 0
-7 -7 -6 -5 -3 -2 -2 -1 -2 -1 -0 0 -0 0 0 0 1 0 0 -0 -0 0 -0 0 0 1 1 0 1 1 1 1 1 1 1 1 0 0
-7 -7 -7 -6 -5 -3 -2 -2 -2 -1 -1 0 0 -0 -0 -0 0 0 0 -0 -0 -0 -0 -0 0 0 1 0 0 0 0 0 0 1 1 0 0 1
-8 -7 -6 -7 -6 -4 -4 -2 -2 -1 -1 -1 -1 -1 -1 -1 1 0 -1 -1 -0 0 -0 -0 -0 0 -0 -0 0 0 1 -0 1 0 0 1 0 -0
-8 -8 -7 -7 -7 -6 -5 -4 -2 -4 -4 -1 -1 -2 -1 -0 -0 -0 -1 0 1 1 -0 -0 0 -0 -0 -1 0 -0 0 0 1 0 0 0 0 -0
-8 -7 -8 -7 -7 -7 -7 -7 -6 -6 -6 -4 -3 -2 -1 -1 -0 -0 -0 -0 0 1 1 0 -0 -0 -1 -0 -0 -1 -0 -1 -0 0 -0 0 0 -0
-8 -8 -8 -8 -8 -6 -7 -7 -7 -5 -4 -4 -2 -1 -1 -1 -0 -1 -0 -0 0 1 0 0 0 -0 -0 -1 -2 -0 -1 -0 -1 -1 -1 -1 -0 -1
-9 -9 -8 -7 -7 -7 -7 -6 -7 -5 -4 -3 -3 -2 -1 -1 -1 -1 -1 0 0 1 1 0 -0 -0 0 -0 -1 -1 -1 -1 -1 -0 -1 -1 -1 -0
-9 -9 -8 -8 -8 -7 -7 -6 -6 -6 -5 -4 -3 -2 -2 -2 -1 -1 -0 0 0 1 1 0 -0 -0 -0 -0 -0 -0 -0 -2 -1 -1 -1 -1 -1 -1
-10 -9 -9 -9 -9 -8 -7 -6 -6 -5 -6 -5 -4 -3 -2 -2 -2 -1 -1 -0 0 1 1 1 1 0 -0 -0 -0 -0 -1 -1 -2 -2 -1 -2 -1 -1
-11 -11 -10 -10 -9 -8 -7 -7 -6 -5 -5 -4 -3 -3 -3 -2 -2 -1 -1 -1 -1 -0 -0 0 1 1 0 -0 -0 -1 -1 -1 -1 -2 -2 -2 -1 -1
-12 -12 -11 -10 -10 -9 -8 -7 -7 -6 -6 -5 -4 -3 -3 -3 -2 -2 -2 -1 -1 -1 -1 -0 -0 0 0 0 -0 -0 -1 -1 -1 -2 -2 -2 -2 -2
-15 -14 -13 -12 -11 -10 -10 -9 -8 -8 -7 -6 -6 -5 -5 -4 -3 -3 -3 -2 -2 -1 -1 -1 -1 -1 -1 -0 -0 -0 -0 -1 -1 -1 -2 -2 -3 -3
-16 -15 -14 -13 -13 -12 -11 -10 -9 -9 -8 -8 -7 -6 -5 -5 -4 -4 -3 -3 -2 -2 -2 -2 -2 -1 -1 -1 -1 -1 -1 -1 -1 -2 -2 -3 -3 -3
-17 -16 -16 -15 -15 -14 -13 -12 -11 -11 -10 -9 -8 -7 -6 -6 -5 -5 -4 -4 -3 -3 -3 -2 -2 -2 -2 -2 -2 -2 -2 -2 -3 -4 -4 -4 -3 -3
-19 -18 -17 -17 -16 -15 -15 -14 -13 -12 -11 -10 -9 -8 -7 -7 -6 -5 -5 -5 -4 -4 -4 -4 -3 -3 -3 -4 -4 -4 -5 -6 -6 -7 -6 -5 -5 -4

GFSNE_700_temp_165.txt.gz
Temp
-6 -6 -5 -4 -4 -4 -2 -2 -1 0 1 2 1 0 1 3 4 2 1 1 1 1 2 3 1 1 2 2 2 2 1 0 1 1 2 2 2 2
-6 -6 -6 -5 -4 -4 -3 -2 -3 -1 0 1 1 1 2 3 2 1 0 0 1 1 1 2 1 2 2 2 2 1 1 1 0 1 1 1 1 2
-6 -6 -6 -6 -6 -5 -4 -3 -2 -1 -0 0 0 1 2 1 1 1 1 1 1 1 1 1 2 2 2 2 2 2 1 1 1 0 0 1 1 1
-6 -6 -7 -6 -6 -5 -5 -3 -2 -1 -1 -0 1 2 2 3 2 2 2 2 1 1 1 1 1 1 2 2 2 2 1 1 1 1 0 0 1 0
-7 -7 -7 -7 -5 -5 -5 -3 -3 -2 -0 -1 0 1 1 2 1 1 2 2 1 2 1 1 1 1 2 2 2 2 1 1 1 1 1 1 1 0
-7 -7 -7 -7 -7 -6 -5 -4 -3 -2 -1 -0 -0 1 1 1 1 2 2 2 2 2 2 2 2 1 2 2 2 2 1 1 1 1 1 1 1 1
-8 -8 -8 -8 -7 -7 -5 -4 -3 -2 -1 -1 -0 1 1 1 2 2 1 1 1 2 2 2 2 2 2 2 2 2 1 1 1 1 1 1 1 1
-8 -8 -8 -8 -8 -7 -6 -4 -3 -2 -3 -1 -1 -0 0 0 1 1 0 0 1 1 1 1 1 1 1 1 1 2 1 1 1 1 1 1 2 2
-7 -8 -8 -8 -8 -7 -7 -5 -4 -3 -2 -0 -1 0 0 0 -0 -0 0 1 0 0 0 0 0 1 0 0 1 1 0 1 1 1 1 1 1 2
-8 -7 -8 -8 -8 -7 -7 -6 -6 -3 -1 -1 -1 -1 0 0 -0 -0 0 1 0 0 -0 -0 0 -0 0 0 0 0 1 1 1 1 1 1 1 1
-9 -8 -8 -8 -8 -7 -7 -7 -5 -3 -2 -2 -1 -1 -1 -1 -0 -0 0 -0 0 -0 -1 -1 -1 -0 -0 -0 -0 1 1 1 1 1 1 0 0 0
-9 -9 -8 -8 -8 -8 -7 -7 -6 -5 -3 -2 -2 -1 -2 -2 -2 -2 -0 -1 -1 -0 -1 -0 -0 -0 -1 -1 -1 -0 -0 -0 -0 0 0 0 1 1
-9 -9 -9 -9 -8 -8 -8 -7 -7 -6 -5 -4 -3 -2 -2 -2 -2 -2 -1 -1 -1 -1 -0 -1 -0 -0 -0 -0 -1 -1 -0 -0 -0 -1 -0 0 0 1
-10 -10 -9 -9 -8 -8 -8 -8 -7 -7 -6 -6 -4 -3 -3 -3 -2 -3 -2 -1 -1 -1 -0 0 -0 -0 -1 -1 -1 -1 -1 -1 -0 -0 -0 -0 -0 -0
-11 -11 -10 -10 -9 -8 -8 -8 -7 -7 -7 -7 -6 -6 -5 -4 -4 -3 -2 -2 -2 -1 -0 0 -0 -0 -1 -1 -1 -1 -1 -1 -1 -1 -1 -1 -1 -0
-12 -12 -11 -10 -9 -9 -8 -8 -7 -7 -7 -6 -6 -5 -5 -4 -3 -3 -3 -2 -2 -1 -1 -0 -1 -0 -0 -0 -1 -0 -1 -1 -1 -1 -2 -1 -1 -1
-14 -13 -12 -12 -12 -11 -10 -9 -7 -7 -7 -7 -6 -6 -5 -5 -3 -3 -3 -2 -2 -1 -1 -1 -1 -1 -0 -0 -0 -0 -1 -1 -1 -1 -1 -1 -1 -1
-15 -15 -14 -13 -12 -12 -11 -10 -9 -8 -8 -7 -7 -6 -5 -5 -4 -3 -3 -3 -2 -2 -1 -1 -0 -0 -0 -0 -0 -1 -1 -1 -1 -2 -3 -2 -2 -2
-17 -16 -16 -15 -14 -12 -11 -10 -10 -9 -8 -8 -7 -7 -6 -6 -4 -4 -3 -2 -2 -2 -1 -1 -1 -1 -1 -0 -0 -1 -1 -1 -1 -1 -1 -2 -3 -2
-18 -17 -17 -16 -15 -14 -13 -12 -11 -10 -9 -9 -8 -7 -7 -6 -5 -4 -3 -2 -2 -3 -2 -2 -2 -1 -1 -1 -1 -1 -1 -1 -1 -1 -1 -1 -1 -1
-19 -18 -18 -17 -16 -16 -15 -14 -13 -12 -11 -10 -9 -8 -7 -7 -6 -5 -5 -4 -3 -3 -4 -3 -2 -2 -1 -1 -1 -1 -1 -1 -1 -2 -1 -1 -1 -1
-20 -19 -19 -18 -17 -17 -16 -15 -14 -14 -13 -12 -11 -10 -9 -7 -7 -6 -5 -5 -5 -4 -4 -4 -3 -3 -3 -2 -2 -2 -2 -2 -2 -2 -2 -2 -2 -2
-21 -20 -20 -19 -18 -18 -17 -17 -16 -15 -14 -13 -12 -11 -10 -9 -8 -7 -6 -6 -5 -5 -4 -5 -4 -4 -4 -3 -3 -3 -3 -3 -3 -4 -4 -4 -3 -5

GFSNE_700_temp_168.txt.gz
Temp
-7 -6 -7 -7 -7 -6 -6 -6 -6 -4 -2 0 0 1 2 1 1 2 3 3 3 2 2 1 1 1 1 2 2 2 2 2 1 1 1 2 2 2
-7 -7 -7 -7 -7 -7 -6 -6 -7 -6 -4 -1 -0 -1 0 1 2 2 3 3 5 3 1 1 1 1 1 1 2 2 2 2 2 1 1 1 1 2
-7 -8 -7 -7 -7 -7 -7 -7 -8 -7 -5 -2 -1 -1 -0 0 1 2 2 3 3 2 1 2 2 1 1 1 2 1 1 2 2 2 1 1 1 1
-7 -8 -8 -7 -7 -7 -7 -7 -7 -6 -5 -4 -1 -2 -0 0 1 1 2 3 2 3 3 2 1 1 1 1 1 1 1 1 2 2 2 1 2 1
-7 -7 -8 -7 -7 -7 -7 -7 -7 -6 -5 -5 -1 -1 -1 -1 0 1 1 1 2 1 1 1 1 1 1 1 0 1 2 1 2 1 2 2 2 2
-8 -7 -7 -8 -8 -7 -7 -7 -7 -6 -5 -4 -2 -1 -2 -0 0 1 1 3 4 2 1 1 1 2 1 1 1 1 1 1 1 2 2 2 2 2
-8 -8 -8 -8 -9 -9 -8 -7 -7 -6 -5 -5 -3 -3 -2 -1 -0 1 1 2 2 2 2 2 2 1 1 1 1 1 1 1 2 2 1 2 1 1
-8 -8 -8 -8 -8 -9 -8 -9 -8 -7 -6 -5 -4 -4 -2 -1 -1 1 1 1 2 2 1 2 2 2 2 2 2 1 1 1 2 2 2 2 1 1
-9 -9 -8 -8 -8 -8 -8 -9 -8 -8 -8 -6 -4 -4 -3 -1 -1 0 0 1 1 2 2 2 1 1 1 2 1 1 2 1 2 2 2 2 1 1
-9 -9 -9 -9 -8 -8 -9 -9 -9 -9 -8 -6 -5 -4 -3 -1 -2 0 -0 0 0 1 1 1 1 0 1 0 1 0 1 1 1 1 1 2 2 2
-10 -10 -10 -10 -9 -9 -8 -8 -9 -9 -8 -6 -5 -4 -2 -1 -2 -1 0 -0 0 0 1 1 1 0 1 0 0 0 -0 0 1 1 1 1 1 1
-11 -11 -11 -10 -10 -10 -9 -9 -8 -8 -8 -7 -6 -4 -2 -3 -1 -0 -0 -0 -0 -0 -0 0 1 1 0 -0 -0 0 0 0 0 0 0 1 1 1
-11 -11 -11 -11 -10 -10 -9 -9 -9 -8 -8 -7 -7 -6 -3 -1 -2 -1 -1 -1 -0 -0 -0 -0 0 -0 -0 -0 -0 -0 -0 0 -0 0 0 1 1 1
-13 -12 -12 -11 -11 -10 -10 -9 -9 -9 -8 -7 -8 -7 -4 -2 -2 -2 -1 -1 -1 -2 -1 -0 -1 -1 -1 -1 -1 -1 -1 -1 -0 -0 -0 -1 -0 -0
-16 -15 -14 -13 -12 -11 -11 -10 -9 -9 -9 -8 -8 -7 -6 -4 -3 -3 -2 -2 -2 -2 -2 -1 -1 -1 -1 -1 -1 -1 0 -1 -1 -1 -1 -1 -0 -0
-17 -16 -15 -14 -13 -12 -12 -11 -11 -10 -9 -8 -8 -9 -8 -7 -4 -4 -3 -3 -3 -3 -3 -3 -3 -1 -1 -1 -1 -1 -1 -1 -1 -1 -1 -2 -1 -0
-18 -17 -16 -16 -15 -14 -13 -12 -11 -10 -9 -8 -8 -7 -7 -7 -6 -6 -6 -6 -4 -5 -3 -3 -3 -2 -1 -1 -1 -1 -1 -1 -1 -1 -2 -1 -1 -2
-19 -18 -17 -17 -16 -15 -14 -13 -12 -11 -10 -9 -8 -8 -7 -7 -6 -5 -5 -5 -4 -3 -3 -3 -3 -2 -2 -2 -2 -1 -1 -1 -1 -1 -1 -1 -1 -2
-20 -20 -19 -18 -17 -16 -15 -14 -13 -12 -12 -11 -10 -9 -8 -7 -7 -6 -5 -5 -4 -3 -3 -2 -2 -2 -2 -2 -2 -1 -1 -1 -1 -1 -1 -1 -1 -1
-21 -20 -20 -19 -18 -17 -17 -16 -15 -14 -13 -12 -11 -10 -9 -8 -7 -7 -6 -6 -5 -4 -4 -3 -2 -3 -2 -1 -1 -1 -1 -1 -1 -1 -1 -1 -1 -1
-21 -21 -21 -20 -19 -18 -18 -17 -16 -15 -14 -13 -12 -11 -10 -9 -8 -7 -7 -6 -5 -4 -4 -4 -3 -3 -2 -2 -2 -2 -1 -1 -1 -1 -1 -1 -1 -1
-22 -22 -21 -21 -20 -20 -19 -18 -17 -16 -15 -15 -14 -13 -11 -10 -9 -8 -8 -7 -6 -5 -4 -4 -4 -3 -3 -2 -2 -2 -2 -2 -2 -2 -2 -2 -2 -2
-22 -22 -22 -21 -21 -20 -20 -19 -18 -17 -17 -16 -15 -14 -13 -12 -11 -10 -9 -8 -7 -6 -5 -5 -4 -3 -4 -4 -4 -3 -3 -3 -2 -2 -2 -2 -2 -3

GFSNE_700_temp_171.txt.gz
Temp
-6 -6 -6 -6 -6 -7 -7 -7 -7 -5 -3 -2 -2 -2 -1 -0 1 1 1 2 1 1 1 1 1 1 2 2 1 2 2 2 2 2 2 2 2 2
-7 -7 -7 -7 -6 -7 -7 -7 -7 -6 -5 -5 -2 -3 -2 -1 -0 0 2 2 1 0 1 2 2 2 2 2 1 1 2 2 2 2 2 2 2 2
-7 -7 -7 -7 -7 -7 -7 -7 -7 -7 -6 -4 -4 -3 -2 -1 -1 -1 0 1 0 1 1 2 2 2 2 1 1 1 1 1 2 2 2 2 2 2
-7 -7 -8 -8 -8 -7 -7 -8 -7 -7 -7 -5 -5 -4 -3 -2 -1 -1 -1 0 0 1 2 2 3 2 2 2 1 1 0 1 1 2 2 2 2 2
-7 -8 -8 -8 -8 -8 -8 -8 -8 -7 -7 -6 -5 -5 -4 -3 -2 -2 -1 -0 1 1 1 2 1 2 1 1 2 1 2 1 1 1 1 2 2 2
-8 -8 -8 -8 -9 -9 -8 -8 -8 -8 -7 -7 -6 -6 -4 -3 -3 -2 -1 -0 1 1 2 2 1 2 3 1 1 2 1 1 1 1 1 2 2 2
-8 -8 -8 -9 -9 -9 -9 -9 -9 -8 -8 -7 -6 -6 -5 -3 -3 -2 -2 -1 -0 0 2 2 2 2 2 2 2 1 1 1 2 0 1 1 2 2
-9 -9 -9 -9 -9 -9 -9 -9 -10 -9 -9 -8 -7 -6 -5 -5 -3 -3 -2 -3 -1 1 1 2 1 1 1 1 1 1 1 1 1 1 -0 1 1 2
-10 -10 -10 -10 -9 -9 -9 -9 -10 -10 -10 -9 -8 -7 -7 -6 -3 -2 -2 -3 -1 0 1 1 1 1 1 1 2 1 1 1 1 0 0 1 1 0
-12 -12 -11 -11 -10 -10 -9 -9 -10 -10 -10 -10 -9 -9 -9 -8 -6 -3 -1 -2 -2 -1 0 1 1 1 1 1 1 1 1 0 0 0 0 1 1 1
-13 -13 -13 -13 -12 -11 -11 -10 -10 -10 -10 -10 -10 -10 -9 -9 -6 -4 -3 -3 -2 -1 -0 1 1 1 1 1 1 1 1 1 1 0 0 0 0 1
-14 -15 -14 -14 -13 -13 -12 -11 -10 -9 -9 -10 -10 -10 -10 -10 -8 -5 -3 -3 -2 -0 0 1 0 0 0 0 0 0 1 1 1 1 1 1 1 1
-16 -16 -16 -15 -15 -14 -14 -12 -11 -10 -10 -10 -10 -11 -11 -10 -8 -6 -4 -3 -3 -1 -0 -0 0 0 0 -0 0 0 1 0 0 0 1 1 0 0
-17 -17 -17 -16 -16 -15 -15 -13 -13 -12 -11 -11 -10 -10 -9 -9 -8 -6 -5 -3 -3 -1 -1 0 -0 0 -0 1 1 1 0 0 0 0 0 0 0 0
-18 -18 -18 -18 -17 -16 -15 -15 -14 -13 -11 -10 -10 -10 -10 -8 -7 -7 -6 -4 -3 -2 -1 -1 -1 -0 -0 0 -0 -0 0 -0 -0 -0 -0 -0 -0 -0
-19 -19 -19 -18 -18 -17 -16 -16 -15 -14 -13 -11 -10 -10 -10 -9 -8 -8 -7 -5 -4 -3 -2 -1 -1 -1 -1 -1 -0 -1 -1 -1 -1 -1 -1 -1 -1 -1
-19 -20 -19 -19 -18 -18 -17 -16 -15 -14 -14 -13 -12 -11 -10 -10 -9 -9 -7 -6 -5 -3 -2 -2 -2 -2 -2 -2 -1 -2 -2 -2 -1 -1 -1 -1 -2 -2
-20 -20 -20 -20 -19 -19 -18 -17 -16 -15 -14 -13 -13 -11 -12 -11 -10 -10 -10 -8 -7 -6 -4 -3 -3 -2 -2 -3 -3 -3 -3 -2 -2 -1 -1 -2 -1 -1
-20 -21 -21 -21 -20 -20 -19 -18 -17 -16 -15 -14 -13 -13 -11 -11 -11 -10 -10 -9 -8 -7 -6 -5 -5 -4 -4 -4 -4 -4 -3 -2 -2 -2 -2 -2 -2 -2
-21 -21 -21 -21 -21 -20 -20 -19 -18 -18 -17 -16 -15 -14 -13 -12 -11 -11 -10 -9 -7 -6 -6 -5 -5 -4 -4 -3 -4 -3 -2 -2 -2 -2 -2 -1 -2 -1
-21 -22 -22 -22 -21 -21 -20 -20 -19 -18 -18 -17 -16 -15 -14 -12 -11 -11 -10 -9 -8 -7 -6 -5 -5 -4 -3 -3 -3 -2 -2 -2 -2 -2 -2 -2 -1 -1
-22 -22 -22 -22 -22 -21 -21 -20 -20 -19 -18 -18 -17 -16 -15 -13 -13 -12 -11 -10 -9 -8 -7 -6 -5 -4 -4 -4 -3 -3 -3 -3 -2 -2 -2 -2 -1 -1
-22 -22 -22 -22 -22 -22 -22 -21 -20 -20 -19 -18 -17 -16 -15 -14 -14 -13 -12 -11 -10 -9 -8 -6 -5 -5 -5 -4 -4 -3 -3 -3 -2 -3 -2 -2 -2 -2

GFSNE_700_temp_177.txt.gz
Temp
-6 -6 -6 -7 -6 -6 -6 -6 -6 -5 -3 -3 -3 -3 -3 -3 -4 -4 -4 -3 -2 -2 -2 -1 -0 -1 0 1 1 2 1 2 3 3 3 3 3 3
-7 -7 -7 -7 -7 -7 -7 -7 -7 -7 -5 -5 -4 -4 -4 -3 -4 -4 -4 -4 -3 -3 -3 -1 -0 -0 -0 -0 1 1 1 1 2 3 3 3 3 3
-7 -7 -7 -7 -7 -7 -7 -7 -7 -7 -6 -5 -5 -5 -5 -4 -4 -4 -5 -4 -3 -3 -3 -2 -1 1 -0 0 -0 1 1 1 1 2 2 3 2 2
-7 -7 -7 -7 -7 -8 -8 -8 -8 -8 -7 -6 -5 -5 -5 -5 -5 -4 -5 -5 -4 -3 -3 -3 -1 0 1 -0 -0 0 0 0 1 2 2 2 2 2
-7 -7 -7 -7 -7 -7 -8 -8 -9 -8 -8 -7 -6 -6 -6 -6 -5 -5 -5 -5 -4 -3 -3 -3 -2 -1 -0 0 0 -0 0 0 2 1 2 1 1 2
-7 -8 -8 -8 -8 -8 -8 -9 -10 -10 -10 -9 -7 -7 -7 -6 -6 -5 -4 -5 -5 -4 -4 -3 -3 -2 -1 0 0 -1 1 1 0 1 1 1 1 1
-8 -8 -9 -9 -10 -11 -11 -11 -11 -11 -11 -11 -9 -8 -8 -7 -6 -6 -5 -5 -5 -5 -4 -5 -4 -2 -1 0 1 0 -1 0 0 1 2 1 1 1
-9 -9 -10 -11 -11 -12 -13 -13 -13 -13 -13 -13 -11 -10 -9 -9 -7 -7 -6 -6 -5 -6 -5 -4 -5 -3 -1 0 1 -0 0 1 1 0 -0 0 0 1
-10 -11 -11 -12 -12 -13 -13 -14 -14 -15 -15 -15 -14 -13 -11 -11 -10 -8 -8 -7 -6 -6 -6 -3 -5 -3 -2 -1 0 0 2 2 2 1 1 1 1 1
-12 -12 -12 -13 -14 -14 -15 -15 -15 -15 -15 -15 -15 -15 -14 -12 -11 -10 -9 -8 -7 -6 -7 -3 -4 -4 -3 -1 -1 0 1 1 0 1 1 1 1 2
-13 -14 -14 -15 -15 -16 -16 -16 -16 -16 -16 -16 -17 -16 -15 -14 -13 -11 -10 -9 -8 -7 -8 -6 -4 -4 -3 -1 -0 -1 -0 1 -0 -0 -0 1 1 1
-14 -15 -16 -16 -17 -17 -17 -18 -18 -17 -17 -17 -17 -16 -16 -15 -14 -13 -12 -10 -9 -8 -9 -8 -7 -6 -3 -2 -1 -2 -1 0 0 0 1 1 1 1
-15 -16 -16 -17 -18 -18 -19 -19 -19 -19 -18 -18 -17 -17 -16 -15 -14 -14 -13 -13 -11 -10 -10 -10 -8 -7 -4 -2 -2 -2 -1 1 1 1 1 1 1 1
-16 -17 -17 -18 -19 -19 -19 -20 -20 -20 -19 -19 -18 -17 -17 -16 -15 -14 -13 -13 -13 -12 -10 -11 -8 -7 -5 -3 -1 -2 -1 -0 0 1 0 1 1 1
-18 -18 -18 -19 -20 -20 -20 -20 -21 -20 -20 -19 -18 -18 -17 -16 -15 -15 -14 -14 -13 -13 -12 -11 -9 -7 -5 -4 -1 -1 -1 0 0 0 1 1 1 1
-18 -19 -19 -20 -20 -20 -21 -21 -21 -21 -20 -20 -19 -19 -18 -17 -16 -15 -14 -14 -13 -12 -13 -11 -10 -8 -6 -5 -2 -2 -1 -0 -0 0 0 1 1 1
-19 -19 -20 -20 -20 -20 -21 -21 -21 -21 -21 -20 -20 -19 -18 -17 -17 -16 -15 -14 -13 -12 -12 -11 -10 -8 -6 -5 -2 -1 -2 -1 -0 0 -0 0 1 0
-19 -20 -20 -21 -21 -21 -21 -21 -21 -21 -21 -21 -20 -19 -19 -18 -17 -17 -16 -15 -14 -13 -12 -10 -9 -8 -6 -5 -3 -2 -2 -1 -1 0 -0 0 0 0
-20 -21 -21 -21 -21 -21 -21 -21 -22 -22 -22 -21 -21 -20 -19 -19 -18 -17 -16 -15 -15 -13 -12 -10 -10 -8 -8 -4 -1 -2 -1 -1 -1 1 -0 -1 -0 -0
-21 -21 -21 -22 -22 -22 -22 -22 -22 -22 -22 -22 -21 -20 -20 -19 -18 -17 -17 -15 -14 -14 -13 -12 -11 -9 -7 -6 -5 -3 -2 -2 -1 -1 -1 -1 0 -0
-21 -21 -22 -22 -22 -22 -22 -22 -22 -22 -22 -22 -21 -21 -20 -20 -19 -18 -18 -17 -16 -15 -14 -13 -11 -10 -8 -7 -7 -6 -5 -5 -3 -1 -1 -1 -1 -1
-21 -22 -22 -22 -22 -22 -22 -22 -22 -22 -22 -22 -22 -21 -21 -20 -20 -19 -18 -17 -17 -16 -15 -14 -12 -10 -9 -9 -8 -8 -7 -5 -4 -2 -2 -2 -2 -2
-21 -22 -22 -23 -23 -23 -23 -23 -22 -22 -22 -22 -22 -21 -21 -20 -20 -19 -19 -18 -17 -16 -15 -14 -12 -11 -10 -10 -9 -8 -7 -7 -5 -4 -3 -3 -3 -3

GFSNE_700_temp_183.txt.gz
Temp
-6 -6 -6 -6 -6 -6 -6 -6 -6 -5 -5 -5 -4 -5 -5 -4 -4 -4 -4 -4 -4 -4 -5 -5 -4 -2 -1 -1 -1 -0 -0 0 1 -0 -0 0 1 1
-6 -7 -7 -7 -7 -7 -7 -7 -7 -6 -5 -5 -5 -5 -5 -5 -5 -5 -4 -4 -4 -4 -5 -5 -5 -4 -2 -2 -1 -1 -1 -1 -0 0 1 1 1 1
-7 -7 -7 -7 -7 -7 -7 -7 -7 -7 -6 -6 -6 -6 -6 -5 -5 -5 -5 -5 -4 -5 -5 -5 -5 -5 -3 -3 -2 -1 -1 -1 -0 0 0 -0 -0 1
-7 -7 -7 -7 -7 -7 -7 -7 -7 -7 -7 -6 -7 -7 -7 -6 -6 -6 -5 -5 -5 -5 -5 -5 -5 -5 -5 -3 -2 -1 -1 -1 -1 -1 0 -0 -1 -1
-8 -8 -8 -8 -8 -8 -8 -8 -8 -8 -8 -8 -7 -8 -8 -7 -7 -7 -6 -6 -6 -6 -6 -5 -5 -5 -5 -4 -3 -2 -2 -2 -1 -1 -1 1 0 -0
-8 -8 -8 -8 -8 -8 -8 -8 -9 -9 -9 -9 -9 -9 -9 -9 -9 -8 -7 -7 -7 -7 -7 -7 -6 -6 -5 -5 -4 -3 -2 -2 -2 -2 -2 -0 -0 0
-9 -9 -9 -9 -9 -9 -9 -10 -10 -10 -11 -10 -10 -10 -11 -11 -11 -10 -9 -8 -8 -8 -7 -7 -7 -6 -6 -6 -5 -4 -3 -2 -2 -2 -1 -1 0 1
-9 -9 -10 -10 -10 -10 -11 -11 -12 -13 -13 -13 -13 -13 -13 -14 -14 -13 -13 -12 -10 -11 -10 -8 -9 -7 -6 -6 -5 -4 -3 -3 -2 -2 -2 -1 -1 -1
-10 -10 -10 -11 -11 -11 -12 -12 -13 -14 -15 -15 -15 -15 -15 -16 -16 -15 -15 -15 -14 -13 -12 -9 -10 -8 -7 -6 -5 -5 -3 -3 -2 -2 -2 -1 -1 -0
-11 -11 -11 -11 -12 -12 -12 -13 -14 -15 -16 -16 -17 -17 -17 -17 -18 -18 -17 -17 -16 -15 -15 -12 -12 -9 -8 -6 -6 -5 -4 -3 -2 -2 -2 -1 -1 -1
-12 -12 -12 -12 -13 -13 -13 -14 -14 -15 -16 -17 -18 -18 -18 -19 -20 -20 -19 -18 -17 -16 -16 -15 -13 -10 -8 -6 -6 -6 -5 -4 -3 -2 -2 -1 -1 -1
-12 -12 -13 -13 -14 -14 -15 -15 -15 -15 -16 -17 -18 -18 -19 -20 -20 -20 -20 -20 -19 -17 -17 -16 -14 -13 -8 -7 -7 -6 -5 -5 -3 -2 -2 -1 -1 -1
-13 -13 -13 -14 -14 -15 -16 -16 -16 -17 -18 -18 -18 -19 -20 -20 -20 -20 -20 -20 -19 -18 -17 -16 -14 -13 -12 -6 -6 -7 -6 -5 -3 -3 -2 -2 -2 -2
-13 -14 -14 -14 -15 -16 -16 -17 -18 -18 -19 -19 -19 -20 -20 -20 -20 -20 -20 -20 -20 -19 -17 -17 -16 -14 -11 -9 -6 -7 -8 -6 -4 -3 -3 -3 -2 -2
-14 -14 -15 -15 -16 -17 -18 -18 -19 -20 -20 -20 -20 -20 -21 -21 -21 -20 -20 -20 -19 -19 -19 -18 -17 -16 -14 -10 -7 -7 -7 -8 -5 -4 -3 -3 -2 -2
-15 -15 -16 -16 -17 -17 -18 -19 -20 -20 -21 -21 -21 -21 -21 -21 -21 -21 -20 -19 -19 -18 -19 -18 -18 -17 -15 -12 -10 -8 -9 -7 -8 -6 -4 -4 -3 -3
-15 -16 -16 -17 -17 -18 -19 -19 -20 -21 -21 -22 -21 -21 -21 -21 -21 -21 -21 -20 -19 -18 -17 -17 -18 -17 -16 -14 -10 -11 -9 -9 -8 -7 -6 -5 -3 -3
-16 -17 -17 -17 -18 -18 -19 -19 -20 -21 -21 -22 -22 -22 -22 -21 -21 -21 -21 -20 -19 -19 -18 -18 -17 -16 -15 -15 -12 -11 -10 -9 -8 -6 -6 -5 -3 -3
-17 -18 -18 -18 -19 -19 -20 -20 -21 -21 -22 -22 -22 -22 -22 -22 -22 -21 -21 -20 -19 -19 -19 -18 -18 -17 -14 -14 -13 -12 -10 -9 -9 -7 -6 -5 -3 -3
-18 -19 -18 -19 -20 -20 -20 -21 -21 -22 -22 -23 -23 -23 -22 -22 -22 -21 -21 -20 -20 -19 -18 -18 -18 -17 -16 -15 -13 -12 -11 -9 -9 -7 -6 -5 -4 -4
-19 -19 -19 -20 -20 -21 -21 -21 -22 -22 -22 -23 -23 -23 -23 -22 -22 -22 -21 -21 -20 -19 -18 -18 -17 -17 -17 -15 -14 -13 -11 -9 -8 -8 -6 -5 -4 -4
-19 -20 -20 -21 -21 -21 -22 -22 -22 -22 -22 -23 -23 -23 -23 -23 -22 -22 -21 -21 -20 -19 -19 -18 -18 -17 -16 -15 -14 -13 -11 -9 -8 -7 -6 -5 -4 -3
-20 -20 -21 -21 -22 -22 -22 -22 -22 -22 -23 -23 -23 -23 -23 -23 -22 -22 -22 -21 -20 -20 -19 -18 -17 -17 -16 -15 -14 -13 -12 -10 -7 -7 -5 -5 -4 -3